Time,TemperatureF,DewpointF,PressureIn,WindDirection,WindDirectionDegrees,WindSpeedMPH,WindSpeedGustMPH,Humidity,HourlyPrecipIn,Conditions,Clouds,dailyrainin,SoftwareType,DateUTC
2013-03-01 00:01:00,35.0,32.9,29.51,ENE,61,19.0,22.0,92,0.00,,,0.00,Wunderground v.1.15,2013-03-01 05:01:00,
2013-03-01 00:02:00,35.0,32.9,29.52,NE,51,19.0,22.0,92,0.00,,,0.00,Wunderground v.1.15,2013-03-01 05:02:00,
2013-03-01 00:06:00,34.9,32.5,29.51,NE,54,19.0,23.0,91,0.00,,,0.00,Wunderground v.1.15,2013-03-01 05:06:00,
2013-03-01 00:07:00,34.9,32.5,29.51,NE,52,19.0,23.0,91,0.00,,,0.00,Wunderground v.1.15,2013-03-01 05:07:00,
2013-03-01 00:08:00,34.9,32.5,29.51,NE,54,21.0,23.0,91,0.00,,,0.00,Wunderground v.1.15,2013-03-01 05:08:00,
2013-03-01 00:14:00,34.9,32.5,29.51,ENE,61,22.0,22.0,91,0.00,,,0.00,Wunderground v.1.15,2013-03-01 05:14:00,
2013-03-01 00:19:00,34.9,32.5,29.52,ENE,59,20.0,24.0,91,0.00,,,0.00,Wunderground v.1.15,2013-03-01 05:19:00,
2013-03-01 00:24:00,34.9,32.5,29.51,NE,56,20.0,21.0,91,0.00,,,0.00,Wunderground v.1.15,2013-03-01 05:24:00,
2013-03-01 00:29:00,34.9,32.3,29.51,NE,52,21.0,22.0,90,0.00,,,0.00,Wunderground v.1.15,2013-03-01 05:29:00,
2013-03-01 00:34:00,34.9,32.3,29.51,NE,51,22.0,22.0,90,0.00,,,0.00,Wunderground v.1.15,2013-03-01 05:34:00,
2013-03-01 00:40:00,34.9,32.3,29.51,ENE,58,22.0,22.0,90,0.00,,,0.00,Wunderground v.1.15,2013-03-01 05:40:00,
2013-03-01 00:45:00,34.8,31.9,29.51,ENE,59,21.0,24.0,89,0.00,,,0.00,Wunderground v.1.15,2013-03-01 05:45:00,
2013-03-01 00:50:00,34.8,31.9,29.52,NE,52,20.0,21.0,89,0.00,,,0.00,Wunderground v.1.15,2013-03-01 05:50:00,
2013-03-01 00:55:00,34.8,32.2,29.51,NE,47,22.0,22.0,90,0.00,,,0.00,Wunderground v.1.15,2013-03-01 05:55:00,
2013-03-01 01:00:00,34.8,31.9,29.52,NE,52,20.0,20.0,89,0.00,,,0.00,Wunderground v.1.15,2013-03-01 06:00:00,
2013-03-01 01:06:00,34.7,31.8,29.52,NE,50,16.0,21.0,89,0.00,,,0.00,Wunderground v.1.15,2013-03-01 06:06:00,
2013-03-01 01:11:00,34.6,32.0,29.52,NE,54,21.0,21.0,90,0.00,,,0.00,Wunderground v.1.15,2013-03-01 06:11:00,
2013-03-01 01:16:00,34.6,32.2,29.52,ENE,57,16.0,21.0,91,0.00,,,0.00,Wunderground v.1.15,2013-03-01 06:16:00,
2013-03-01 01:21:00,34.6,32.0,29.52,NE,54,17.0,18.0,90,0.00,,,0.00,Wunderground v.1.15,2013-03-01 06:21:00,
2013-03-01 01:26:00,34.7,32.1,29.52,ENE,63,20.0,20.0,90,0.00,,,0.00,Wunderground v.1.15,2013-03-01 06:26:00,
2013-03-01 01:31:00,34.5,31.6,29.51,NE,56,22.0,22.0,89,0.00,,,0.00,Wunderground v.1.15,2013-03-01 06:31:00,
2013-03-01 01:36:00,34.4,31.2,29.51,NE,49,19.0,22.0,88,0.00,,,0.00,Wunderground v.1.15,2013-03-01 06:36:00,
2013-03-01 01:41:00,34.3,31.4,29.51,NE,46,23.0,23.0,89,0.00,,,0.00,Wunderground v.1.15,2013-03-01 06:41:00,
2013-03-01 01:47:00,34.1,31.5,29.51,NE,36,17.0,23.0,90,0.00,,,0.00,Wunderground v.1.15,2013-03-01 06:47:00,
2013-03-01 01:52:00,33.9,31.0,29.51,NE,44,20.0,20.0,89,0.00,,,0.00,Wunderground v.1.15,2013-03-01 06:52:00,
2013-03-01 01:58:00,33.7,31.1,29.52,NNE,20,15.0,20.0,90,0.00,,,0.00,Wunderground v.1.15,2013-03-01 06:58:00,
2013-03-01 02:03:00,33.6,31.0,29.52,North,349,19.0,20.0,90,0.00,,,0.00,Wunderground v.1.15,2013-03-01 07:03:00,
2013-03-01 02:08:00,33.6,31.0,29.51,North,4,22.0,22.0,90,0.00,,,0.00,Wunderground v.1.15,2013-03-01 07:08:00,
2013-03-01 02:13:00,33.6,31.0,29.51,NNE,26,17.0,20.0,90,0.00,,,0.00,Wunderground v.1.15,2013-03-01 07:13:00,
2013-03-01 02:18:00,33.6,31.3,29.51,NNE,27,18.0,20.0,91,0.00,,,0.00,Wunderground v.1.15,2013-03-01 07:18:00,
2013-03-01 02:23:00,33.6,31.3,29.51,NNE,32,19.0,21.0,91,0.00,,,0.00,Wunderground v.1.15,2013-03-01 07:23:00,
2013-03-01 02:28:00,33.7,31.1,29.51,NNE,16,21.0,21.0,90,0.00,,,0.00,Wunderground v.1.15,2013-03-01 07:28:00,
2013-03-01 02:33:00,33.7,31.1,29.51,NNE,30,20.0,22.0,90,0.00,,,0.00,Wunderground v.1.15,2013-03-01 07:33:00,
2013-03-01 02:38:00,33.7,30.8,29.51,NE,42,19.0,22.0,89,0.00,,,0.00,Wunderground v.1.15,2013-03-01 07:38:00,
2013-03-01 02:43:00,33.7,30.8,29.52,NE,49,19.0,20.0,89,0.00,,,0.00,Wunderground v.1.15,2013-03-01 07:43:00,
2013-03-01 02:48:00,33.7,30.8,29.52,NNE,23,20.0,21.0,89,0.00,,,0.00,Wunderground v.1.15,2013-03-01 07:48:00,
2013-03-01 02:53:00,33.7,31.1,29.52,NE,46,15.0,20.0,90,0.00,,,0.00,Wunderground v.1.15,2013-03-01 07:53:00,
2013-03-01 02:58:00,33.6,30.7,29.52,NNE,30,16.0,20.0,89,0.00,,,0.00,Wunderground v.1.15,2013-03-01 07:58:00,
2013-03-01 03:03:00,33.6,30.7,29.52,NE,41,15.0,17.0,89,0.00,,,0.00,Wunderground v.1.15,2013-03-01 08:03:00,
2013-03-01 03:08:00,33.5,30.6,29.52,NNE,23,19.0,20.0,89,0.00,,,0.00,Wunderground v.1.15,2013-03-01 08:08:00,
2013-03-01 03:13:00,33.4,30.2,29.52,NNE,26,19.0,20.0,88,0.00,,,0.00,Wunderground v.1.15,2013-03-01 08:13:00,
2013-03-01 03:18:00,33.5,30.6,29.52,NE,37,20.0,20.0,89,0.00,,,0.00,Wunderground v.1.15,2013-03-01 08:18:00,
2013-03-01 03:23:00,33.5,30.6,29.52,NE,40,21.0,23.0,89,0.00,,,0.00,Wunderground v.1.15,2013-03-01 08:23:00,
2013-03-01 03:28:00,33.3,29.8,29.52,NE,54,19.0,23.0,87,0.00,,,0.00,Wunderground v.1.15,2013-03-01 08:28:00,
2013-03-01 03:33:00,33.2,29.8,29.52,NE,54,18.0,24.0,87,0.00,,,0.00,Wunderground v.1.15,2013-03-01 08:33:00,
2013-03-01 03:38:00,33.2,29.5,29.53,NE,56,18.0,24.0,86,0.00,,,0.00,Wunderground v.1.15,2013-03-01 08:38:00,
2013-03-01 03:43:00,33.3,30.1,29.52,NE,46,16.0,22.0,88,0.00,,,0.00,Wunderground v.1.15,2013-03-01 08:43:00,
2013-03-01 03:48:00,33.3,29.8,29.52,NNE,32,19.0,22.0,87,0.00,,,0.00,Wunderground v.1.15,2013-03-01 08:48:00,
2013-03-01 03:53:00,33.2,29.8,29.52,NE,44,21.0,23.0,87,0.00,,,0.00,Wunderground v.1.15,2013-03-01 08:53:00,
2013-03-01 03:58:00,33.3,29.8,29.52,NE,46,21.0,23.0,87,0.00,,,0.00,Wunderground v.1.15,2013-03-01 08:58:00,
2013-03-01 04:03:00,33.4,29.9,29.53,NE,49,23.0,23.0,87,0.00,,,0.00,Wunderground v.1.15,2013-03-01 09:03:00,
2013-03-01 04:08:00,33.8,30.1,29.52,ENE,59,24.0,26.0,86,0.00,,,0.00,Wunderground v.1.15,2013-03-01 09:08:00,
2013-03-01 04:13:00,33.8,30.1,29.53,ENE,62,22.0,22.0,86,0.00,,,0.00,Wunderground v.1.15,2013-03-01 09:13:00,
2013-03-01 04:19:00,-999.9,-99.9,29.52,North,32767,-999.0,22.0,255,-99.99,,,0.00,Wunderground v.1.15,2013-03-01 09:19:00,
2013-03-01 04:24:00,-999.9,-99.9,29.53,North,32767,-999.0,-999.0,255,-99.99,,,0.00,Wunderground v.1.15,2013-03-01 09:24:00,
2013-03-01 04:29:00,-999.9,-99.9,29.53,North,32767,-999.0,-999.0,255,-99.99,,,0.00,Wunderground v.1.15,2013-03-01 09:29:00,
2013-03-01 04:34:00,-999.9,-99.9,29.53,North,32767,-999.0,-999.0,255,-99.99,,,0.00,Wunderground v.1.15,2013-03-01 09:34:00,
2013-03-01 04:39:00,-999.9,-99.9,29.53,North,32767,-999.0,-999.0,255,-99.99,,,0.00,Wunderground v.1.15,2013-03-01 09:39:00,
2013-03-01 04:44:00,-999.9,-99.9,29.53,North,32767,-999.0,-999.0,255,-99.99,,,0.00,Wunderground v.1.15,2013-03-01 09:44:00,
2013-03-01 04:49:00,-999.9,-99.9,29.53,North,32767,-999.0,-999.0,255,-99.99,,,0.00,Wunderground v.1.15,2013-03-01 09:49:00,
2013-03-01 04:54:00,-999.9,-99.9,29.53,North,32767,-999.0,-999.0,255,-99.99,,,0.00,Wunderground v.1.15,2013-03-01 09:54:00,
2013-03-01 04:59:00,-999.9,-99.9,29.53,North,32767,-999.0,-999.0,255,-99.99,,,0.00,Wunderground v.1.15,2013-03-01 09:59:00,
2013-03-01 05:04:00,-999.9,-99.9,29.53,North,32767,-999.0,-999.0,255,-99.99,,,0.00,Wunderground v.1.15,2013-03-01 10:04:00,
2013-03-01 05:09:00,-999.9,-99.9,29.53,North,32767,-999.0,-999.0,255,-99.99,,,0.00,Wunderground v.1.15,2013-03-01 10:09:00,
2013-03-01 05:14:00,-999.9,-99.9,29.53,North,32767,-999.0,-999.0,255,-99.99,,,0.00,Wunderground v.1.15,2013-03-01 10:14:00,
2013-03-01 05:19:00,-999.9,-99.9,29.54,North,32767,-999.0,-999.0,255,-99.99,,,0.00,Wunderground v.1.15,2013-03-01 10:19:00,
2013-03-01 05:24:00,-999.9,-99.9,29.54,North,32767,-999.0,-999.0,255,-99.99,,,0.00,Wunderground v.1.15,2013-03-01 10:24:00,
2013-03-01 05:29:00,-999.9,-99.9,29.54,North,32767,-999.0,-999.0,255,-99.99,,,0.00,Wunderground v.1.15,2013-03-01 10:29:00,
2013-03-01 05:34:00,-999.9,-99.9,29.54,North,32767,-999.0,-999.0,255,-99.99,,,0.00,Wunderground v.1.15,2013-03-01 10:34:00,
2013-03-01 05:39:00,-999.9,-99.9,29.54,North,32767,-999.0,-999.0,255,-99.99,,,0.00,Wunderground v.1.15,2013-03-01 10:39:00,
2013-03-01 05:44:00,-999.9,-99.9,29.54,North,32767,-999.0,-999.0,255,-99.99,,,0.00,Wunderground v.1.15,2013-03-01 10:44:00,
2013-03-01 05:49:00,-999.9,-99.9,29.54,North,32767,-999.0,-999.0,255,-99.99,,,0.00,Wunderground v.1.15,2013-03-01 10:49:00,
2013-03-01 05:54:00,-999.9,-99.9,29.54,North,32767,-999.0,-999.0,255,-99.99,,,0.00,Wunderground v.1.15,2013-03-01 10:54:00,
2013-03-01 05:59:00,-999.9,-99.9,29.54,North,32767,-999.0,-999.0,255,-99.99,,,0.00,Wunderground v.1.15,2013-03-01 10:59:00,
2013-03-01 06:04:00,-999.9,-99.9,29.54,North,32767,-999.0,-999.0,255,-99.99,,,0.00,Wunderground v.1.15,2013-03-01 11:04:00,
2013-03-01 06:09:00,-999.9,-99.9,29.54,North,32767,-999.0,-999.0,255,-99.99,,,0.00,Wunderground v.1.15,2013-03-01 11:09:00,
2013-03-01 06:14:00,-999.9,-99.9,29.55,North,32767,-999.0,-999.0,255,-99.99,,,0.00,Wunderground v.1.15,2013-03-01 11:14:00,
2013-03-01 06:19:00,-999.9,-99.9,29.55,North,32767,-999.0,-999.0,255,-99.99,,,0.00,Wunderground v.1.15,2013-03-01 11:19:00,
2013-03-01 06:24:00,-999.9,-99.9,29.55,North,32767,-999.0,-999.0,255,-99.99,,,0.00,Wunderground v.1.15,2013-03-01 11:24:00,
2013-03-01 06:29:00,-999.9,-99.9,29.55,North,32767,-999.0,-999.0,255,-99.99,,,0.00,Wunderground v.1.15,2013-03-01 11:29:00,
2013-03-01 06:34:00,-999.9,-99.9,29.55,North,32767,-999.0,-999.0,255,-99.99,,,0.00,Wunderground v.1.15,2013-03-01 11:34:00,
2013-03-01 06:39:00,-999.9,-99.9,29.55,North,32767,-999.0,-999.0,255,-99.99,,,0.00,Wunderground v.1.15,2013-03-01 11:39:00,
2013-03-01 06:44:00,33.4,29.4,29.56,NNE,30,13.0,19.0,85,0.00,,,0.00,Wunderground v.1.15,2013-03-01 11:44:00,
2013-03-01 06:49:00,33.4,29.7,29.56,North,11,16.0,16.0,86,0.00,,,0.00,Wunderground v.1.15,2013-03-01 11:49:00,
2013-03-01 06:54:00,33.4,29.7,29.56,NNE,26,15.0,19.0,86,0.00,,,0.00,Wunderground v.1.15,2013-03-01 11:54:00,
2013-03-01 06:59:00,33.5,29.8,29.56,NNE,19,14.0,15.0,86,0.00,,,0.00,Wunderground v.1.15,2013-03-01 11:59:00,
2013-03-01 07:04:00,33.4,29.4,29.56,North,359,18.0,19.0,85,0.00,,,0.00,Wunderground v.1.15,2013-03-01 12:04:00,
2013-03-01 07:09:00,33.3,29.6,29.57,NNW,341,14.0,16.0,86,0.00,,,0.00,Wunderground v.1.15,2013-03-01 12:09:00,
2013-03-01 07:14:00,33.3,29.6,29.57,NNE,21,18.0,19.0,86,0.00,,,0.00,Wunderground v.1.15,2013-03-01 12:14:00,
2013-03-01 07:20:00,33.5,29.5,29.56,North,356,15.0,16.0,85,0.00,,,0.00,Wunderground v.1.15,2013-03-01 12:20:00,
2013-03-01 07:25:00,33.6,29.9,29.57,NNE,22,16.0,19.0,86,0.00,,,0.00,Wunderground v.1.15,2013-03-01 12:25:00,
2013-03-01 07:30:00,33.6,29.3,29.56,NNE,20,15.0,17.0,84,0.00,,,0.00,Wunderground v.1.15,2013-03-01 12:30:00,
2013-03-01 07:35:00,33.4,29.4,29.57,NNE,20,16.0,22.0,85,0.00,,,0.00,Wunderground v.1.15,2013-03-01 12:35:00,
2013-03-01 07:40:00,33.4,29.4,29.57,NNE,27,14.0,18.0,85,0.00,,,0.00,Wunderground v.1.15,2013-03-01 12:40:00,
2013-03-01 07:44:00,33.4,29.7,29.57,NNE,31,17.0,21.0,86,0.00,,,0.00,Wunderground v.1.15,2013-03-01 12:44:00,
2013-03-01 07:49:00,33.4,29.4,29.57,NE,46,18.0,18.0,85,0.00,,,0.00,Wunderground v.1.15,2013-03-01 12:49:00,
2013-03-01 07:55:00,33.4,29.4,29.57,NE,44,19.0,25.0,85,0.00,,,0.00,Wunderground v.1.15,2013-03-01 12:55:00,
2013-03-01 08:00:00,33.4,29.4,29.57,NNE,32,18.0,20.0,85,0.00,,,0.00,Wunderground v.1.15,2013-03-01 13:00:00,
2013-03-01 08:05:00,33.5,29.5,29.57,NNE,31,17.0,24.0,85,0.00,,,0.00,Wunderground v.1.15,2013-03-01 13:05:00,
2013-03-01 08:10:00,33.4,29.4,29.58,NE,53,21.0,23.0,85,0.00,,,0.00,Wunderground v.1.15,2013-03-01 13:10:00,
2013-03-01 08:15:00,33.6,29.6,29.58,NE,40,16.0,23.0,85,0.00,,,0.00,Wunderground v.1.15,2013-03-01 13:15:00,
2013-03-01 08:20:00,33.7,29.7,29.58,NE,54,24.0,24.0,85,0.00,,,0.00,Wunderground v.1.15,2013-03-01 13:20:00,
2013-03-01 08:25:00,33.8,29.8,29.58,NE,46,20.0,24.0,85,0.00,,,0.00,Wunderground v.1.15,2013-03-01 13:25:00,
2013-03-01 08:30:00,33.8,29.8,29.58,NE,44,22.0,23.0,85,0.00,,,0.00,Wunderground v.1.15,2013-03-01 13:30:00,
2013-03-01 08:35:00,33.7,29.7,29.58,ENE,58,25.0,25.0,85,0.00,,,0.00,Wunderground v.1.15,2013-03-01 13:35:00,
2013-03-01 08:40:00,33.7,29.4,29.58,NE,50,18.0,22.0,84,0.00,,,0.00,Wunderground v.1.15,2013-03-01 13:40:00,
2013-03-01 08:45:00,33.9,30.2,29.59,NE,54,16.0,25.0,86,0.00,,,0.00,Wunderground v.1.15,2013-03-01 13:45:00,
2013-03-01 08:50:00,33.9,29.9,29.59,NE,44,17.0,20.0,85,0.00,,,0.00,Wunderground v.1.15,2013-03-01 13:50:00,
2013-03-01 08:55:00,33.7,29.7,29.59,NNE,33,14.0,23.0,85,0.00,,,0.00,Wunderground v.1.15,2013-03-01 13:55:00,
2013-03-01 09:00:00,33.9,29.9,29.59,NE,51,21.0,22.0,85,0.00,,,0.00,Wunderground v.1.15,2013-03-01 14:00:00,
2013-03-01 09:05:00,33.9,29.9,29.59,NE,48,19.0,23.0,85,0.00,,,0.00,Wunderground v.1.15,2013-03-01 14:05:00,
2013-03-01 09:10:00,33.9,29.6,29.59,NE,43,18.0,22.0,84,0.00,,,0.00,Wunderground v.1.15,2013-03-01 14:10:00,
2013-03-01 09:15:00,34.1,30.1,29.59,North,9,23.0,24.0,85,0.00,,,0.00,Wunderground v.1.15,2013-03-01 14:15:00,
2013-03-01 09:20:00,34.3,29.7,29.59,NE,36,15.0,21.0,83,0.00,,,0.00,Wunderground v.1.15,2013-03-01 14:20:00,
2013-03-01 09:25:00,34.3,30.0,29.59,NE,40,20.0,21.0,84,0.00,,,0.00,Wunderground v.1.15,2013-03-01 14:25:00,
2013-03-01 09:30:00,34.6,30.3,29.59,NE,41,16.0,18.0,84,0.00,,,0.00,Wunderground v.1.15,2013-03-01 14:30:00,
2013-03-01 09:35:00,34.7,29.8,29.59,NE,37,19.0,20.0,82,0.00,,,0.00,Wunderground v.1.15,2013-03-01 14:35:00,
2013-03-01 09:40:00,34.9,30.0,29.59,NE,46,17.0,19.0,82,0.00,,,0.00,Wunderground v.1.15,2013-03-01 14:40:00,
2013-03-01 09:45:00,35.1,29.9,29.59,NE,40,19.0,22.0,81,0.00,,,0.00,Wunderground v.1.15,2013-03-01 14:45:00,
2013-03-01 09:50:00,35.3,30.1,29.59,NNE,27,18.0,20.0,81,0.00,,,0.00,Wunderground v.1.15,2013-03-01 14:50:00,
2013-03-01 09:55:00,35.6,29.7,29.59,NE,50,25.0,27.0,79,0.00,,,0.00,Wunderground v.1.15,2013-03-01 14:55:00,
2013-03-01 10:00:00,35.6,29.4,29.59,NE,43,22.0,24.0,78,0.00,,,0.00,Wunderground v.1.15,2013-03-01 15:00:00,
2013-03-01 10:05:00,35.7,29.5,29.59,NE,47,21.0,25.0,78,0.00,,,0.00,Wunderground v.1.15,2013-03-01 15:05:00,
2013-03-01 10:10:00,35.7,29.8,29.60,NE,41,22.0,22.0,79,0.00,,,0.00,Wunderground v.1.15,2013-03-01 15:10:00,
2013-03-01 10:15:00,35.7,29.8,29.60,NE,43,21.0,24.0,79,0.00,,,0.00,Wunderground v.1.15,2013-03-01 15:15:00,
2013-03-01 10:20:00,36.0,30.4,29.60,NE,51,17.0,21.0,80,0.00,,,0.00,Wunderground v.1.15,2013-03-01 15:20:00,
2013-03-01 10:25:00,35.9,30.0,29.59,NE,56,17.0,22.0,79,0.00,,,0.00,Wunderground v.1.15,2013-03-01 15:25:00,
2013-03-01 10:30:00,36.0,30.1,29.60,NE,39,19.0,20.0,79,0.00,,,0.00,Wunderground v.1.15,2013-03-01 15:30:00,
2013-03-01 10:35:00,36.0,29.8,29.60,NE,48,22.0,23.0,78,0.00,,,0.00,Wunderground v.1.15,2013-03-01 15:35:00,
2013-03-01 10:40:00,36.0,29.8,29.59,ENE,60,18.0,21.0,78,0.00,,,0.00,Wunderground v.1.15,2013-03-01 15:40:00,
2013-03-01 10:45:00,36.1,30.2,29.60,NE,37,15.0,22.0,79,0.00,,,0.00,Wunderground v.1.15,2013-03-01 15:45:00,
2013-03-01 10:50:00,36.2,30.3,29.60,NNE,21,20.0,24.0,79,0.00,,,0.00,Wunderground v.1.15,2013-03-01 15:50:00,
2013-03-01 10:55:00,36.1,29.6,29.60,NE,36,19.0,24.0,77,0.00,,,0.00,Wunderground v.1.15,2013-03-01 15:55:00,
2013-03-01 11:00:00,36.1,29.6,29.60,NNE,26,19.0,21.0,77,0.00,,,0.00,Wunderground v.1.15,2013-03-01 16:00:00,
2013-03-01 11:05:00,36.3,29.8,29.60,NE,37,17.0,21.0,77,0.00,,,0.00,Wunderground v.1.15,2013-03-01 16:05:00,
2013-03-01 11:10:00,36.4,29.9,29.60,North,354,19.0,21.0,77,0.00,,,0.00,Wunderground v.1.15,2013-03-01 16:10:00,
2013-03-01 11:15:00,36.5,30.3,29.60,NNE,23,16.0,21.0,78,0.00,,,0.00,Wunderground v.1.15,2013-03-01 16:15:00,
2013-03-01 11:20:00,36.6,30.1,29.60,NNE,33,17.0,20.0,77,0.00,,,0.00,Wunderground v.1.15,2013-03-01 16:20:00,
2013-03-01 11:25:00,36.9,30.4,29.60,NNE,28,20.0,22.0,77,0.00,,,0.00,Wunderground v.1.15,2013-03-01 16:25:00,
2013-03-01 11:30:00,36.9,30.4,29.60,NNE,25,18.0,20.0,77,0.00,,,0.00,Wunderground v.1.15,2013-03-01 16:30:00,
2013-03-01 11:35:00,36.9,30.0,29.60,NE,42,14.0,21.0,76,0.00,,,0.00,Wunderground v.1.15,2013-03-01 16:35:00,
2013-03-01 11:40:00,37.0,30.1,29.60,NE,36,17.0,20.0,76,0.00,,,0.00,Wunderground v.1.15,2013-03-01 16:40:00,
2013-03-01 11:45:00,37.2,30.7,29.60,NE,34,16.0,20.0,77,0.00,,,0.00,Wunderground v.1.15,2013-03-01 16:45:00,
2013-03-01 11:50:00,37.2,30.7,29.60,NE,39,15.0,18.0,77,0.00,,,0.00,Wunderground v.1.15,2013-03-01 16:50:00,
2013-03-01 11:55:00,37.2,30.7,29.60,NE,56,16.0,19.0,77,0.00,,,0.00,Wunderground v.1.15,2013-03-01 16:55:00,
2013-03-01 12:01:00,37.3,30.1,29.60,NE,44,15.0,21.0,75,0.00,,,0.00,Wunderground v.1.15,2013-03-01 17:01:00,
2013-03-01 12:06:00,37.3,30.4,29.60,NNE,31,19.0,23.0,76,0.00,,,0.00,Wunderground v.1.15,2013-03-01 17:06:00,
2013-03-01 12:11:00,37.3,30.7,29.60,NE,46,20.0,21.0,77,0.00,,,0.00,Wunderground v.1.15,2013-03-01 17:11:00,
2013-03-01 12:16:00,37.2,30.3,29.60,NE,47,16.0,22.0,76,0.00,,,0.00,Wunderground v.1.15,2013-03-01 17:16:00,
2013-03-01 12:21:00,37.2,30.3,29.61,NE,46,16.0,20.0,76,0.00,,,0.00,Wunderground v.1.15,2013-03-01 17:21:00,
2013-03-01 12:26:00,37.1,30.2,29.61,NE,46,17.0,20.0,76,0.00,,,0.00,Wunderground v.1.15,2013-03-01 17:26:00,
2013-03-01 12:31:00,37.0,30.1,29.61,NE,56,16.0,21.0,76,0.00,,,0.00,Wunderground v.1.15,2013-03-01 17:31:00,
2013-03-01 12:36:00,37.1,30.6,29.60,ENE,70,15.0,21.0,77,0.00,,,0.00,Wunderground v.1.15,2013-03-01 17:36:00,
2013-03-01 12:41:00,37.0,30.1,29.60,ENE,58,19.0,21.0,76,0.00,,,0.00,Wunderground v.1.15,2013-03-01 17:41:00,
2013-03-01 12:46:00,37.0,30.5,29.60,NE,56,18.0,21.0,77,0.00,,,0.00,Wunderground v.1.15,2013-03-01 17:46:00,
2013-03-01 12:51:00,37.0,30.1,29.60,ENE,63,18.0,21.0,76,0.00,,,0.00,Wunderground v.1.15,2013-03-01 17:51:00,
2013-03-01 12:56:00,36.6,30.7,29.60,NE,56,23.0,25.0,79,0.00,,,0.00,Wunderground v.1.15,2013-03-01 17:56:00,
2013-03-01 13:01:00,36.6,30.7,29.60,NE,56,22.0,22.0,79,0.00,,,0.00,Wunderground v.1.15,2013-03-01 18:01:00,
2013-03-01 13:06:00,36.7,31.1,29.60,NE,56,20.0,23.0,80,0.00,,,0.00,Wunderground v.1.15,2013-03-01 18:06:00,
2013-03-01 13:11:00,36.7,30.8,29.60,NE,56,21.0,23.0,79,0.00,,,0.00,Wunderground v.1.15,2013-03-01 18:11:00,
2013-03-01 13:16:00,36.6,31.0,29.60,NE,50,20.0,23.0,80,0.00,,,0.00,Wunderground v.1.15,2013-03-01 18:16:00,
2013-03-01 13:21:00,36.5,31.2,29.60,NE,56,22.0,24.0,81,0.00,,,0.00,Wunderground v.1.15,2013-03-01 18:21:00,
2013-03-01 13:26:00,36.4,30.8,29.60,NE,56,19.0,24.0,80,0.00,,,0.00,Wunderground v.1.15,2013-03-01 18:26:00,
2013-03-01 13:31:00,36.3,31.0,29.59,ENE,61,26.0,26.0,81,0.00,,,0.00,Wunderground v.1.15,2013-03-01 18:31:00,
2013-03-01 13:36:00,36.3,30.7,29.60,ENE,65,25.0,26.0,80,0.00,,,0.00,Wunderground v.1.15,2013-03-01 18:36:00,
2013-03-01 13:41:00,36.3,31.0,29.59,ENE,63,22.0,24.0,81,0.00,,,0.00,Wunderground v.1.15,2013-03-01 18:41:00,
2013-03-01 13:46:00,36.4,31.1,29.60,ENE,58,22.0,25.0,81,0.00,,,0.00,Wunderground v.1.15,2013-03-01 18:46:00,
2013-03-01 13:51:00,36.4,31.1,29.60,ENE,60,22.0,24.0,81,0.00,,,0.00,Wunderground v.1.15,2013-03-01 18:51:00,
2013-03-01 13:56:00,36.4,30.8,29.60,NE,54,21.0,24.0,80,0.00,,,0.00,Wunderground v.1.15,2013-03-01 18:56:00,
2013-03-01 14:01:00,36.4,30.8,29.60,NE,49,20.0,20.0,80,0.00,,,0.00,Wunderground v.1.15,2013-03-01 19:01:00,
2013-03-01 14:06:00,36.6,30.7,29.60,ENE,58,21.0,25.0,79,0.00,,,0.00,Wunderground v.1.15,2013-03-01 19:06:00,
2013-03-01 14:11:00,36.8,31.2,29.60,ENE,66,19.0,20.0,80,0.00,,,0.00,Wunderground v.1.15,2013-03-01 19:11:00,
2013-03-01 14:16:00,36.7,30.8,29.60,ENE,63,21.0,22.0,79,0.00,,,0.00,Wunderground v.1.15,2013-03-01 19:16:00,
2013-03-01 14:21:00,36.6,30.7,29.60,ENE,63,17.0,19.0,79,0.00,,,0.00,Wunderground v.1.15,2013-03-01 19:21:00,
2013-03-01 14:26:00,36.7,31.1,29.60,ENE,58,18.0,22.0,80,0.00,,,0.00,Wunderground v.1.15,2013-03-01 19:26:00,
2013-03-01 14:31:00,36.8,30.6,29.60,NE,53,19.0,20.0,78,0.00,,,0.00,Wunderground v.1.15,2013-03-01 19:31:00,
2013-03-01 14:36:00,37.0,31.4,29.61,NE,42,18.0,21.0,80,0.00,,,0.00,Wunderground v.1.15,2013-03-01 19:36:00,
2013-03-01 14:41:00,36.9,31.0,29.60,NE,53,21.0,21.0,79,0.00,,,0.00,Wunderground v.1.15,2013-03-01 19:41:00,
2013-03-01 14:46:00,36.8,31.2,29.60,NE,51,19.0,21.0,80,0.00,,,0.00,Wunderground v.1.15,2013-03-01 19:46:00,
2013-03-01 14:51:00,36.6,31.0,29.61,NE,52,15.0,20.0,80,0.00,,,0.00,Wunderground v.1.15,2013-03-01 19:51:00,
2013-03-01 14:56:00,36.5,31.2,29.61,NE,56,20.0,22.0,81,0.00,,,0.00,Wunderground v.1.15,2013-03-01 19:56:00,
2013-03-01 15:01:00,36.4,31.1,29.61,NE,52,17.0,19.0,81,0.00,,,0.00,Wunderground v.1.15,2013-03-01 20:01:00,
2013-03-01 15:06:00,36.4,31.1,29.61,NE,56,16.0,19.0,81,0.00,,,0.00,Wunderground v.1.15,2013-03-01 20:06:00,
2013-03-01 15:11:00,36.5,31.5,29.61,NE,49,18.0,18.0,82,0.00,,,0.00,Wunderground v.1.15,2013-03-01 20:11:00,
2013-03-01 15:16:00,36.4,31.1,29.61,NE,51,16.0,19.0,81,0.00,,,0.00,Wunderground v.1.15,2013-03-01 20:16:00,
2013-03-01 15:21:00,36.5,31.2,29.61,NE,50,16.0,19.0,81,0.00,,,0.00,Wunderground v.1.15,2013-03-01 20:21:00,
2013-03-01 15:26:00,36.5,31.2,29.61,NE,48,16.0,20.0,81,0.00,,,0.00,Wunderground v.1.15,2013-03-01 20:26:00,
2013-03-01 15:31:00,36.5,30.9,29.61,NE,54,17.0,19.0,80,0.00,,,0.00,Wunderground v.1.15,2013-03-01 20:31:00,
2013-03-01 15:36:00,36.5,31.2,29.61,NE,52,19.0,20.0,81,0.00,,,0.00,Wunderground v.1.15,2013-03-01 20:36:00,
2013-03-01 15:41:00,36.5,31.5,29.62,NE,54,19.0,19.0,82,0.00,,,0.00,Wunderground v.1.15,2013-03-01 20:41:00,
2013-03-01 15:46:00,36.5,30.9,29.61,NE,54,18.0,20.0,80,0.00,,,0.00,Wunderground v.1.15,2013-03-01 20:46:00,
2013-03-01 15:51:00,36.5,31.5,29.61,NE,52,16.0,19.0,82,0.00,,,0.00,Wunderground v.1.15,2013-03-01 20:51:00,
2013-03-01 15:56:00,36.7,31.7,29.61,ENE,60,19.0,19.0,82,0.00,,,0.00,Wunderground v.1.15,2013-03-01 20:56:00,
2013-03-01 16:01:00,36.7,31.4,29.61,NE,56,16.0,19.0,81,0.00,,,0.00,Wunderground v.1.15,2013-03-01 21:01:00,
2013-03-01 16:06:00,36.7,31.7,29.62,NE,49,15.0,19.0,82,0.00,,,0.00,Wunderground v.1.15,2013-03-01 21:06:00,
2013-03-01 16:11:00,36.8,31.5,29.62,NE,53,14.0,18.0,81,0.00,,,0.00,Wunderground v.1.15,2013-03-01 21:11:00,
2013-03-01 16:16:00,36.6,30.7,29.62,NE,51,13.0,20.0,79,0.00,,,0.00,Wunderground v.1.15,2013-03-01 21:16:00,
2013-03-01 16:21:00,36.7,31.1,29.62,NE,46,16.0,19.0,80,0.00,,,0.00,Wunderground v.1.15,2013-03-01 21:21:00,
2013-03-01 16:26:00,36.7,30.8,29.62,NE,42,15.0,19.0,79,0.00,,,0.00,Wunderground v.1.15,2013-03-01 21:26:00,
2013-03-01 16:31:00,36.8,31.2,29.62,NE,44,12.0,16.0,80,0.00,,,0.00,Wunderground v.1.15,2013-03-01 21:31:00,
2013-03-01 16:36:00,36.8,30.9,29.62,NE,47,14.0,16.0,79,0.00,,,0.00,Wunderground v.1.15,2013-03-01 21:36:00,
2013-03-01 16:41:00,36.9,31.0,29.62,NE,44,12.0,16.0,79,0.00,,,0.00,Wunderground v.1.15,2013-03-01 21:41:00,
2013-03-01 16:47:00,36.9,31.0,29.63,NE,39,14.0,16.0,79,0.00,,,0.00,Wunderground v.1.15,2013-03-01 21:47:00,
2013-03-01 16:52:00,36.8,30.6,29.63,NE,46,14.0,15.0,78,0.00,,,0.00,Wunderground v.1.15,2013-03-01 21:52:00,
2013-03-01 16:57:00,36.8,30.9,29.63,NE,41,13.0,15.0,79,0.00,,,0.00,Wunderground v.1.15,2013-03-01 21:57:00,
2013-03-01 17:02:00,36.8,31.2,29.63,NE,40,13.0,13.0,80,0.00,,,0.00,Wunderground v.1.15,2013-03-01 22:02:00,
2013-03-01 17:07:00,36.8,30.9,29.63,NE,38,13.0,15.0,79,0.00,,,0.00,Wunderground v.1.15,2013-03-01 22:07:00,
2013-03-01 17:12:00,36.7,31.1,29.63,NE,44,11.0,15.0,80,0.00,,,0.00,Wunderground v.1.15,2013-03-01 22:12:00,
2013-03-01 17:17:00,36.7,30.8,29.64,NE,39,10.0,15.0,79,0.00,,,0.00,Wunderground v.1.15,2013-03-01 22:17:00,
2013-03-01 17:22:00,36.8,31.2,29.64,NNE,26,12.0,14.0,80,0.00,,,0.00,Wunderground v.1.15,2013-03-01 22:22:00,
2013-03-01 17:27:00,36.8,30.9,29.64,NNE,21,13.0,15.0,79,0.00,,,0.00,Wunderground v.1.15,2013-03-01 22:27:00,
2013-03-01 17:32:00,36.9,31.0,29.64,NNE,21,10.0,13.0,79,0.00,,,0.00,Wunderground v.1.15,2013-03-01 22:32:00,
2013-03-01 17:37:00,36.9,31.0,29.64,NNE,26,12.0,14.0,79,0.00,,,0.00,Wunderground v.1.15,2013-03-01 22:37:00,
2013-03-01 17:42:00,36.9,31.0,29.64,NNE,26,11.0,12.0,79,0.00,,,0.00,Wunderground v.1.15,2013-03-01 22:42:00,
2013-03-01 17:47:00,36.9,30.7,29.64,NNE,27,10.0,12.0,78,0.00,,,0.00,Wunderground v.1.15,2013-03-01 22:47:00,
2013-03-01 17:52:00,36.9,30.7,29.65,NNE,26,12.0,12.0,78,0.00,,,0.00,Wunderground v.1.15,2013-03-01 22:52:00,
2013-03-01 17:57:00,36.9,31.0,29.65,NNE,30,10.0,13.0,79,0.00,,,0.00,Wunderground v.1.15,2013-03-01 22:57:00,
2013-03-01 18:02:00,36.9,31.0,29.65,NNE,19,11.0,12.0,79,0.00,,,0.00,Wunderground v.1.15,2013-03-01 23:02:00,
2013-03-01 18:07:00,36.9,31.0,29.65,North,6,11.0,14.0,79,0.00,,,0.00,Wunderground v.1.15,2013-03-01 23:07:00,
2013-03-01 18:12:00,36.9,31.0,29.65,NNE,16,9.0,12.0,79,0.00,,,0.00,Wunderground v.1.15,2013-03-01 23:12:00,
2013-03-01 18:17:00,36.9,31.6,29.65,NNE,17,10.0,12.0,81,0.00,,,0.00,Wunderground v.1.15,2013-03-01 23:17:00,
2013-03-01 18:22:00,36.9,31.3,29.65,North,352,12.0,12.0,80,0.00,,,0.00,Wunderground v.1.15,2013-03-01 23:22:00,
2013-03-01 18:27:00,36.9,31.3,29.65,NNW,341,12.0,13.0,80,0.00,,,0.00,Wunderground v.1.15,2013-03-01 23:27:00,
2013-03-01 18:32:00,36.9,31.0,29.65,NW,321,11.0,14.0,79,0.00,,,0.00,Wunderground v.1.15,2013-03-01 23:32:00,
2013-03-01 18:37:00,36.9,31.3,29.65,NW,304,7.0,14.0,80,0.00,,,0.00,Wunderground v.1.15,2013-03-01 23:37:00,
2013-03-01 18:42:00,36.9,31.6,29.65,NE,47,14.0,14.0,81,0.00,,,0.00,Wunderground v.1.15,2013-03-01 23:42:00,
2013-03-01 18:47:00,36.9,32.2,29.64,NW,322,13.0,15.0,83,0.00,,,0.00,Wunderground v.1.15,2013-03-01 23:47:00,
2013-03-01 18:52:00,36.8,32.1,29.65,NNW,331,12.0,15.0,83,0.00,,,0.00,Wunderground v.1.15,2013-03-01 23:52:00,
2013-03-01 18:57:00,36.8,31.8,29.64,NW,326,10.0,15.0,82,0.00,,,0.00,Wunderground v.1.15,2013-03-01 23:57:00,
2013-03-01 19:02:00,36.8,32.1,29.65,NNW,327,12.0,15.0,83,0.00,,,0.00,Wunderground v.1.15,2013-03-02 00:02:00,
2013-03-01 19:07:00,36.7,32.0,29.65,NW,316,11.0,16.0,83,0.00,,,0.00,Wunderground v.1.15,2013-03-02 00:07:00,
2013-03-01 19:12:00,36.7,32.0,29.65,NW,315,16.0,18.0,83,0.00,,,0.00,Wunderground v.1.15,2013-03-02 00:12:00,
2013-03-01 19:17:00,36.7,32.0,29.65,NW,304,13.0,18.0,83,0.00,,,0.00,Wunderground v.1.15,2013-03-02 00:17:00,
2013-03-01 19:22:00,36.7,32.0,29.65,NNW,334,14.0,18.0,83,0.00,,,0.00,Wunderground v.1.15,2013-03-02 00:22:00,
2013-03-01 19:27:00,36.5,31.5,29.65,NNW,336,14.0,19.0,82,0.00,,,0.00,Wunderground v.1.15,2013-03-02 00:27:00,
2013-03-01 19:32:00,36.5,31.5,29.65,NNW,328,17.0,19.0,82,0.00,,,0.00,Wunderground v.1.15,2013-03-02 00:32:00,
2013-03-01 19:37:00,36.4,31.4,29.65,NW,323,18.0,21.0,82,0.00,,,0.00,Wunderground v.1.15,2013-03-02 00:37:00,
2013-03-01 19:42:00,36.4,31.4,29.65,NNW,327,15.0,20.0,82,0.00,,,0.00,Wunderground v.1.15,2013-03-02 00:42:00,
2013-03-01 19:47:00,36.3,31.3,29.65,NNW,334,19.0,22.0,82,0.00,,,0.00,Wunderground v.1.15,2013-03-02 00:47:00,
2013-03-01 19:52:00,36.3,31.6,29.65,NNW,328,16.0,20.0,83,0.00,,,0.00,Wunderground v.1.15,2013-03-02 00:52:00,
2013-03-01 19:58:00,36.2,31.5,29.65,NNW,336,20.0,22.0,83,0.00,,,0.00,Wunderground v.1.15,2013-03-02 00:58:00,
2013-03-01 20:03:00,36.2,31.8,29.65,NW,325,18.0,21.0,84,0.00,,,0.00,Wunderground v.1.15,2013-03-02 01:03:00,
2013-03-01 20:08:00,36.2,31.2,29.65,NNW,345,19.0,21.0,82,0.00,,,0.00,Wunderground v.1.15,2013-03-02 01:08:00,
2013-03-01 20:13:00,36.2,31.2,29.65,NW,326,17.0,22.0,82,0.00,,,0.00,Wunderground v.1.15,2013-03-02 01:13:00,
2013-03-01 20:18:00,36.3,31.6,29.65,North,352,20.0,22.0,83,0.00,,,0.00,Wunderground v.1.15,2013-03-02 01:18:00,
2013-03-01 20:23:00,36.3,31.3,29.65,ESE,103,20.0,21.0,82,0.00,,,0.00,Wunderground v.1.15,2013-03-02 01:23:00,
2013-03-01 20:28:00,36.2,30.9,29.65,NW,324,18.0,22.0,81,0.00,,,0.00,Wunderground v.1.15,2013-03-02 01:28:00,
2013-03-01 20:33:00,36.1,30.8,29.65,NNW,333,19.0,22.0,81,0.00,,,0.00,Wunderground v.1.15,2013-03-02 01:33:00,
2013-03-01 20:38:00,36.2,31.2,29.66,NW,316,18.0,23.0,82,0.00,,,0.00,Wunderground v.1.15,2013-03-02 01:38:00,
2013-03-01 20:43:00,36.2,31.2,29.66,North,354,17.0,21.0,82,0.00,,,0.00,Wunderground v.1.15,2013-03-02 01:43:00,
2013-03-01 20:48:00,36.2,30.9,29.66,NNW,346,19.0,21.0,81,0.00,,,0.00,Wunderground v.1.15,2013-03-02 01:48:00,
2013-03-01 20:53:00,36.1,31.1,29.66,NNW,343,10.0,21.0,82,0.00,,,0.00,Wunderground v.1.15,2013-03-02 01:53:00,
2013-03-01 20:58:00,36.1,30.8,29.65,North,359,17.0,21.0,81,0.00,,,0.00,Wunderground v.1.15,2013-03-02 01:58:00,
2013-03-01 21:03:00,36.0,31.0,29.66,North,359,16.0,21.0,82,0.00,,,0.00,Wunderground v.1.15,2013-03-02 02:03:00,
2013-03-01 21:08:00,36.0,31.0,29.66,NNW,341,13.0,21.0,82,0.00,,,0.00,Wunderground v.1.15,2013-03-02 02:08:00,
2013-03-01 21:13:00,36.0,31.0,29.66,NNE,18,15.0,18.0,82,0.00,,,0.00,Wunderground v.1.15,2013-03-02 02:13:00,
2013-03-01 21:18:00,35.8,30.8,29.66,North,11,16.0,19.0,82,0.00,,,0.00,Wunderground v.1.15,2013-03-02 02:18:00,
2013-03-01 21:23:00,35.5,30.8,29.66,North,6,17.0,18.0,83,0.00,,,0.00,Wunderground v.1.15,2013-03-02 02:23:00,
2013-03-01 21:28:00,35.5,30.8,29.66,North,360,16.0,18.0,83,0.00,,,0.00,Wunderground v.1.15,2013-03-02 02:28:00,
2013-03-01 21:33:00,35.5,30.8,29.66,North,7,14.0,17.0,83,0.00,,,0.00,Wunderground v.1.15,2013-03-02 02:33:00,
2013-03-01 21:38:00,35.3,30.7,29.66,North,351,12.0,18.0,83,0.00,,,0.00,Wunderground v.1.15,2013-03-02 02:38:00,
2013-03-01 21:44:00,35.2,31.1,29.66,NE,37,17.0,19.0,85,0.00,,,0.00,Wunderground v.1.15,2013-03-02 02:44:00,
2013-03-01 21:49:00,34.9,31.1,29.65,NW,321,15.0,19.0,86,0.00,,,0.00,Wunderground v.1.15,2013-03-02 02:49:00,
2013-03-01 21:54:00,34.8,31.0,29.66,NNE,20,15.0,18.0,86,0.00,,,0.00,Wunderground v.1.15,2013-03-02 02:54:00,
2013-03-01 21:59:00,34.7,31.2,29.66,NW,321,11.0,18.0,87,0.00,,,0.00,Wunderground v.1.15,2013-03-02 02:59:00,
2013-03-01 22:04:00,34.5,31.0,29.66,North,360,16.0,17.0,87,0.00,,,0.00,Wunderground v.1.15,2013-03-02 03:04:00,
2013-03-01 22:09:00,34.4,31.2,29.66,North,1,15.0,17.0,88,0.00,,,0.00,Wunderground v.1.15,2013-03-02 03:09:00,
2013-03-01 22:14:00,34.2,31.3,29.66,NNE,31,15.0,17.0,89,0.00,,,0.00,Wunderground v.1.15,2013-03-02 03:14:00,
2013-03-01 22:19:00,34.1,31.2,29.66,North,11,15.0,17.0,89,0.00,,,0.00,Wunderground v.1.15,2013-03-02 03:19:00,
2013-03-01 22:24:00,34.0,31.4,29.66,NNW,341,15.0,16.0,90,0.00,,,0.00,Wunderground v.1.15,2013-03-02 03:24:00,
2013-03-01 22:29:00,33.9,31.3,29.66,North,7,16.0,17.0,90,0.00,,,0.00,Wunderground v.1.15,2013-03-02 03:29:00,
2013-03-01 22:34:00,33.8,31.5,29.65,NNE,17,17.0,18.0,91,0.00,,,0.00,Wunderground v.1.15,2013-03-02 03:34:00,
2013-03-01 22:39:00,33.8,31.5,29.65,North,350,17.0,18.0,91,0.00,,,0.00,Wunderground v.1.15,2013-03-02 03:39:00,
2013-03-01 22:44:00,33.9,31.8,29.65,North,11,19.0,19.0,92,0.00,,,0.00,Wunderground v.1.15,2013-03-02 03:44:00,
2013-03-01 22:49:00,33.7,31.4,29.65,NNE,13,18.0,20.0,91,0.00,,,0.00,Wunderground v.1.15,2013-03-02 03:49:00,
2013-03-01 22:54:00,33.7,31.6,29.65,NNW,346,17.0,19.0,92,0.00,,,0.00,Wunderground v.1.15,2013-03-02 03:54:00,
2013-03-01 22:59:00,33.7,31.6,29.65,North,350,16.0,20.0,92,0.00,,,0.00,Wunderground v.1.15,2013-03-02 03:59:00,
2013-03-01 23:04:00,33.6,31.5,29.64,North,1,18.0,19.0,92,0.00,,,0.00,Wunderground v.1.15,2013-03-02 04:04:00,
2013-03-01 23:09:00,33.6,31.5,29.65,NNW,340,16.0,20.0,92,0.00,,,0.00,Wunderground v.1.15,2013-03-02 04:09:00,
2013-03-01 23:14:00,33.6,31.5,29.65,North,11,17.0,20.0,92,0.00,,,0.00,Wunderground v.1.15,2013-03-02 04:14:00,
2013-03-01 23:19:00,33.6,31.5,29.65,North,354,19.0,20.0,92,0.00,,,0.00,Wunderground v.1.15,2013-03-02 04:19:00,
2013-03-01 23:24:00,33.7,31.6,29.65,North,359,15.0,19.0,92,0.00,,,0.00,Wunderground v.1.15,2013-03-02 04:24:00,
2013-03-01 23:29:00,33.7,31.6,29.64,NNW,340,16.0,21.0,92,0.00,,,0.00,Wunderground v.1.15,2013-03-02 04:29:00,
2013-03-01 23:34:00,33.6,31.5,29.64,North,352,20.0,20.0,92,0.00,,,0.00,Wunderground v.1.15,2013-03-02 04:34:00,
2013-03-01 23:39:00,33.6,31.5,29.64,NNW,327,17.0,20.0,92,0.00,,,0.00,Wunderground v.1.15,2013-03-02 04:39:00,
2013-03-01 23:44:00,33.7,31.6,29.64,NNW,329,17.0,21.0,92,0.00,,,0.00,Wunderground v.1.15,2013-03-02 04:44:00,
2013-03-01 23:49:00,33.6,31.3,29.64,NW,324,16.0,22.0,91,0.00,,,0.00,Wunderground v.1.15,2013-03-02 04:49:00,
2013-03-01 23:54:00,33.6,31.5,29.65,NNE,23,19.0,21.0,92,0.00,,,0.00,Wunderground v.1.15,2013-03-02 04:54:00,
2013-03-01 23:59:00,33.6,31.5,29.64,WNW,295,17.0,23.0,92,0.00,,,0.00,Wunderground v.1.15,2013-03-02 04:59:00,